﻿測定場所 (Monitoring sites),日付 (Measurement date),時間 (Measurement time),線量率 最大値 (max) μGy/h,線量率 最小値 (min) μGy/h,線量率 平均値 (average) μGy/h,
江戸川 (Edogawa),2013-03-24,23:01～24:00,0.103,0.0888,0.0946,
江戸川 (Edogawa),2013-03-24,22:01～23:00,0.0993,0.0892,0.0943,
江戸川 (Edogawa),2013-03-24,21:01～22:00,0.101,0.0899,0.0943,
江戸川 (Edogawa),2013-03-24,20:01～21:00,0.100,0.0888,0.0945,
江戸川 (Edogawa),2013-03-24,19:01～20:00,0.100,0.0855,0.0942,
江戸川 (Edogawa),2013-03-24,18:01～19:00,0.100,0.0890,0.0949,
江戸川 (Edogawa),2013-03-24,17:01～18:00,0.101,0.0897,0.0960,
江戸川 (Edogawa),2013-03-24,16:01～17:00,0.103,0.0888,0.0957,
江戸川 (Edogawa),2013-03-24,15:01～16:00,0.102,0.0915,0.0963,
江戸川 (Edogawa),2013-03-24,14:01～15:00,0.101,0.0904,0.0949,
江戸川 (Edogawa),2013-03-24,13:01～14:00,0.100,0.0900,0.0954,
江戸川 (Edogawa),2013-03-24,12:01～13:00,0.101,0.0909,0.0953,
江戸川 (Edogawa),2013-03-24,11:01～12:00,0.0998,0.0912,0.0952,
江戸川 (Edogawa),2013-03-24,10:01～11:00,0.100,0.0901,0.0948,
江戸川 (Edogawa),2013-03-24,09:01～10:00,0.101,0.0893,0.0945,
江戸川 (Edogawa),2013-03-24,08:01～09:00,0.0993,0.0882,0.0940,
江戸川 (Edogawa),2013-03-24,07:01～08:00,0.102,0.0897,0.0950,
江戸川 (Edogawa),2013-03-24,06:01～07:00,0.0991,0.0907,0.0949,
江戸川 (Edogawa),2013-03-24,05:01～06:00,0.102,0.0892,0.0950,
江戸川 (Edogawa),2013-03-24,04:01～05:00,0.0998,0.0894,0.0950,
江戸川 (Edogawa),2013-03-24,03:01～04:00,0.100,0.0904,0.0952,
江戸川 (Edogawa),2013-03-24,02:01～03:00,0.101,0.0880,0.0945,
江戸川 (Edogawa),2013-03-24,01:01～02:00,0.100,0.0890,0.0950,
江戸川 (Edogawa),2013-03-24,00:01～01:00,0.102,0.0909,0.0955,
江戸川 (Edogawa),2013-03-23,23:01～24:00,0.103,0.0882,0.0947,
江戸川 (Edogawa),2013-03-23,22:01～23:00,0.0997,0.0880,0.0946,
江戸川 (Edogawa),2013-03-23,21:01～22:00,0.101,0.0905,0.0950,
江戸川 (Edogawa),2013-03-23,20:01～21:00,0.100,0.0878,0.0945,
江戸川 (Edogawa),2013-03-23,19:01～20:00,0.102,0.0887,0.0949,
江戸川 (Edogawa),2013-03-23,18:01～19:00,0.101,0.0890,0.0949,
江戸川 (Edogawa),2013-03-23,17:01～18:00,0.101,0.0888,0.0958,
江戸川 (Edogawa),2013-03-23,16:01～17:00,0.102,0.0901,0.0961,
江戸川 (Edogawa),2013-03-23,15:01～16:00,0.105,0.0903,0.0955,
江戸川 (Edogawa),2013-03-23,14:01～15:00,0.101,0.0881,0.0958,
江戸川 (Edogawa),2013-03-23,13:01～14:00,0.104,0.0896,0.0958,
江戸川 (Edogawa),2013-03-23,12:01～13:00,0.103,0.0890,0.0959,
江戸川 (Edogawa),2013-03-23,11:01～12:00,0.102,0.0904,0.0963,
江戸川 (Edogawa),2013-03-23,10:01～11:00,0.101,0.0916,0.0964,
江戸川 (Edogawa),2013-03-23,09:01～10:00,0.104,0.0918,0.0971,
江戸川 (Edogawa),2013-03-23,08:01～09:00,0.102,0.0883,0.0953,
江戸川 (Edogawa),2013-03-23,07:01～08:00,0.102,0.0895,0.0955,
江戸川 (Edogawa),2013-03-23,06:01～07:00,0.0999,0.0867,0.0950,
江戸川 (Edogawa),2013-03-23,05:01～06:00,0.100,0.0868,0.0953,
江戸川 (Edogawa),2013-03-23,04:01～05:00,0.100,0.0886,0.0949,
江戸川 (Edogawa),2013-03-23,03:01～04:00,0.102,0.0885,0.0945,
江戸川 (Edogawa),2013-03-23,02:01～03:00,0.100,0.0874,0.0946,
江戸川 (Edogawa),2013-03-23,01:01～02:00,0.101,0.0889,0.0955,
江戸川 (Edogawa),2013-03-23,00:01～01:00,0.101,0.0908,0.0962,
江戸川 (Edogawa),2013-03-22,23:01～24:00,0.103,0.0916,0.0976,
江戸川 (Edogawa),2013-03-22,22:01～23:00,0.103,0.0902,0.0954,
江戸川 (Edogawa),2013-03-22,21:01～22:00,0.101,0.0885,0.0951,
江戸川 (Edogawa),2013-03-22,20:01～21:00,0.0996,0.0882,0.0942,
江戸川 (Edogawa),2013-03-22,19:01～20:00,0.100,0.0888,0.0948,
江戸川 (Edogawa),2013-03-22,18:01～19:00,0.0998,0.0896,0.0949,
江戸川 (Edogawa),2013-03-22,17:01～18:00,0.101,0.0907,0.0951,
江戸川 (Edogawa),2013-03-22,16:01～17:00,0.101,0.0901,0.0954,
江戸川 (Edogawa),2013-03-22,15:01～16:00,0.101,0.0894,0.0955,
江戸川 (Edogawa),2013-03-22,14:01～15:00,0.101,0.0901,0.0962,
江戸川 (Edogawa),2013-03-22,13:01～14:00,0.102,0.0888,0.0956,
江戸川 (Edogawa),2013-03-22,12:01～13:00,0.100,0.0898,0.0955,
江戸川 (Edogawa),2013-03-22,11:01～12:00,0.101,0.0904,0.0953,
江戸川 (Edogawa),2013-03-22,10:01～11:00,0.100,0.0906,0.0958,
江戸川 (Edogawa),2013-03-22,09:01～10:00,0.102,0.0906,0.0952,
江戸川 (Edogawa),2013-03-22,08:01～09:00,0.102,0.0888,0.0935,
江戸川 (Edogawa),2013-03-22,07:01～08:00,0.100,0.0894,0.0942,
江戸川 (Edogawa),2013-03-22,06:01～07:00,0.100,0.0865,0.0941,
江戸川 (Edogawa),2013-03-22,05:01～06:00,0.101,0.0886,0.0955,
江戸川 (Edogawa),2013-03-22,04:01～05:00,0.0994,0.0879,0.0943,
江戸川 (Edogawa),2013-03-22,03:01～04:00,0.0986,0.0877,0.0938,
江戸川 (Edogawa),2013-03-22,02:01～03:00,0.0994,0.0869,0.0938,
江戸川 (Edogawa),2013-03-22,01:01～02:00,0.101,0.0874,0.0943,
江戸川 (Edogawa),2013-03-22,00:01～01:00,0.0977,0.0889,0.0935,
江戸川 (Edogawa),2013-03-21,23:01～24:00,0.0992,0.0872,0.0937,
江戸川 (Edogawa),2013-03-21,22:01～23:00,0.0980,0.0881,0.0941,
江戸川 (Edogawa),2013-03-21,21:01～22:00,0.0991,0.0894,0.0942,
江戸川 (Edogawa),2013-03-21,20:01～21:00,0.0992,0.0866,0.0938,
江戸川 (Edogawa),2013-03-21,19:01～20:00,0.0999,0.0846,0.0940,
江戸川 (Edogawa),2013-03-21,18:01～19:00,0.101,0.0877,0.0940,
江戸川 (Edogawa),2013-03-21,17:01～18:00,0.101,0.0854,0.0944,
江戸川 (Edogawa),2013-03-21,16:01～17:00,0.100,0.0900,0.0945,
江戸川 (Edogawa),2013-03-21,15:01～16:00,0.102,0.0886,0.0953,
江戸川 (Edogawa),2013-03-21,14:01～15:00,0.101,0.0890,0.0962,
江戸川 (Edogawa),2013-03-21,13:01～14:00,0.103,0.0883,0.0951,
江戸川 (Edogawa),2013-03-21,12:01～13:00,0.0998,0.0891,0.0947,
江戸川 (Edogawa),2013-03-21,11:01～12:00,0.0992,0.0884,0.0945,
江戸川 (Edogawa),2013-03-21,10:01～11:00,0.0994,0.0896,0.0942,
江戸川 (Edogawa),2013-03-21,09:01～10:00,0.0984,0.0886,0.0940,
江戸川 (Edogawa),2013-03-21,08:01～09:00,0.100,0.0881,0.0933,
江戸川 (Edogawa),2013-03-21,07:01～08:00,0.0989,0.0852,0.0928,
江戸川 (Edogawa),2013-03-21,06:01～07:00,0.0979,0.0875,0.0925,
江戸川 (Edogawa),2013-03-21,05:01～06:00,0.0977,0.0865,0.0922,
江戸川 (Edogawa),2013-03-21,04:01～05:00,0.0990,0.0861,0.0926,
江戸川 (Edogawa),2013-03-21,03:01～04:00,0.0974,0.0863,0.0931,
江戸川 (Edogawa),2013-03-21,02:01～03:00,0.0989,0.0870,0.0922,
江戸川 (Edogawa),2013-03-21,01:01～02:00,0.0979,0.0857,0.0929,
江戸川 (Edogawa),2013-03-21,00:01～01:00,0.102,0.0871,0.0930,
江戸川 (Edogawa),2013-03-20,23:01～24:00,0.101,0.0870,0.0936,
江戸川 (Edogawa),2013-03-20,22:01～23:00,0.102,0.0902,0.0957,
江戸川 (Edogawa),2013-03-20,21:01～22:00,0.112,0.0956,0.104,
江戸川 (Edogawa),2013-03-20,20:01～21:00,0.112,0.0991,0.105,
江戸川 (Edogawa),2013-03-20,19:01～20:00,0.116,0.0932,0.106,
江戸川 (Edogawa),2013-03-20,18:01～19:00,0.101,0.0878,0.0955,
江戸川 (Edogawa),2013-03-20,17:01～18:00,0.101,0.0895,0.0945,
江戸川 (Edogawa),2013-03-20,16:01～17:00,0.102,0.0890,0.0955,
江戸川 (Edogawa),2013-03-20,15:01～16:00,0.101,0.0899,0.0950,
江戸川 (Edogawa),2013-03-20,14:01～15:00,0.102,0.0882,0.0951,
江戸川 (Edogawa),2013-03-20,13:01～14:00,0.100,0.0894,0.0951,
江戸川 (Edogawa),2013-03-20,12:01～13:00,0.0991,0.0883,0.0946,
江戸川 (Edogawa),2013-03-20,11:01～12:00,0.100,0.0891,0.0950,
江戸川 (Edogawa),2013-03-20,10:01～11:00,0.102,0.0904,0.0953,
江戸川 (Edogawa),2013-03-20,09:01～10:00,0.102,0.0909,0.0957,
江戸川 (Edogawa),2013-03-20,08:01～09:00,0.101,0.0883,0.0946,
江戸川 (Edogawa),2013-03-20,07:01～08:00,0.101,0.0880,0.0936,
江戸川 (Edogawa),2013-03-20,06:01～07:00,0.101,0.0873,0.0941,
江戸川 (Edogawa),2013-03-20,05:01～06:00,0.0980,0.0875,0.0934,
江戸川 (Edogawa),2013-03-20,04:01～05:00,0.0998,0.0870,0.0934,
江戸川 (Edogawa),2013-03-20,03:01～04:00,0.0983,0.0891,0.0939,
江戸川 (Edogawa),2013-03-20,02:01～03:00,0.100,0.0876,0.0941,
江戸川 (Edogawa),2013-03-20,01:01～02:00,0.0991,0.0879,0.0941,
江戸川 (Edogawa),2013-03-20,00:01～01:00,0.101,0.0872,0.0941,
江戸川 (Edogawa),2013-03-19,23:01～24:00,0.0996,0.0876,0.0936,
江戸川 (Edogawa),2013-03-19,22:01～23:00,0.102,0.0874,0.0944,
江戸川 (Edogawa),2013-03-19,21:01～22:00,0.100,0.0883,0.0938,
江戸川 (Edogawa),2013-03-19,20:01～21:00,0.0990,0.0902,0.0943,
江戸川 (Edogawa),2013-03-19,19:01～20:00,0.101,0.0878,0.0942,
江戸川 (Edogawa),2013-03-19,18:01～19:00,0.0987,0.0897,0.0944,
江戸川 (Edogawa),2013-03-19,17:01～18:00,0.0999,0.0868,0.0938,
江戸川 (Edogawa),2013-03-19,16:01～17:00,0.0978,0.0884,0.0930,
江戸川 (Edogawa),2013-03-19,15:01～16:00,0.101,0.0877,0.0942,
江戸川 (Edogawa),2013-03-19,14:01～15:00,0.0998,0.0888,0.0941,
江戸川 (Edogawa),2013-03-19,13:01～14:00,0.100,0.0888,0.0946,
江戸川 (Edogawa),2013-03-19,12:01～13:00,0.0987,0.0881,0.0935,
江戸川 (Edogawa),2013-03-19,11:01～12:00,0.0991,0.0868,0.0938,
江戸川 (Edogawa),2013-03-19,10:01～11:00,0.0987,0.0876,0.0936,
江戸川 (Edogawa),2013-03-19,09:01～10:00,0.103,0.0884,0.0945,
江戸川 (Edogawa),2013-03-19,08:01～09:00,0.101,0.0884,0.0946,
江戸川 (Edogawa),2013-03-19,07:01～08:00,0.100,0.0869,0.0933,
江戸川 (Edogawa),2013-03-19,06:01～07:00,0.0991,0.0857,0.0921,
江戸川 (Edogawa),2013-03-19,05:01～06:00,0.0971,0.0878,0.0925,
江戸川 (Edogawa),2013-03-19,04:01～05:00,0.101,0.0871,0.0926,
江戸川 (Edogawa),2013-03-19,03:01～04:00,0.0980,0.0840,0.0933,
江戸川 (Edogawa),2013-03-19,02:01～03:00,0.101,0.0895,0.0950,
江戸川 (Edogawa),2013-03-19,01:01～02:00,0.102,0.0878,0.0969,
江戸川 (Edogawa),2013-03-19,00:01～01:00,0.103,0.0889,0.0965,
江戸川 (Edogawa),2013-03-18,23:01～24:00,0.103,0.0890,0.0958,
江戸川 (Edogawa),2013-03-18,22:01～23:00,0.103,0.0896,0.0969,
江戸川 (Edogawa),2013-03-18,21:01～22:00,0.102,0.0909,0.0965,
江戸川 (Edogawa),2013-03-18,20:01～21:00,0.103,0.0903,0.0950,
江戸川 (Edogawa),2013-03-18,19:01～20:00,0.0998,0.0905,0.0948,
江戸川 (Edogawa),2013-03-18,18:01～19:00,0.100,0.0884,0.0946,
江戸川 (Edogawa),2013-03-18,17:01～18:00,0.100,0.0900,0.0953,
江戸川 (Edogawa),2013-03-18,16:01～17:00,0.101,0.0898,0.0955,
江戸川 (Edogawa),2013-03-18,15:01～16:00,0.102,0.0897,0.0954,
江戸川 (Edogawa),2013-03-18,14:01～15:00,0.101,0.0912,0.0954,
江戸川 (Edogawa),2013-03-18,13:01～14:00,0.101,0.0897,0.0955,
江戸川 (Edogawa),2013-03-18,12:01～13:00,0.102,0.0906,0.0952,
江戸川 (Edogawa),2013-03-18,11:01～12:00,0.101,0.0897,0.0956,
江戸川 (Edogawa),2013-03-18,10:01～11:00,0.101,0.0891,0.0959,
江戸川 (Edogawa),2013-03-18,09:01～10:00,0.100,0.0892,0.0948,
江戸川 (Edogawa),2013-03-18,08:01～09:00,0.100,0.0878,0.0940,
江戸川 (Edogawa),2013-03-18,07:01～08:00,0.0995,0.0897,0.0948,
江戸川 (Edogawa),2013-03-18,06:01～07:00,0.100,0.0897,0.0946,
江戸川 (Edogawa),2013-03-18,05:01～06:00,0.102,0.0889,0.0947,
江戸川 (Edogawa),2013-03-18,04:01～05:00,0.101,0.0893,0.0948,
江戸川 (Edogawa),2013-03-18,03:01～04:00,0.0993,0.0883,0.0945,
江戸川 (Edogawa),2013-03-18,02:01～03:00,0.103,0.0905,0.0945,
江戸川 (Edogawa),2013-03-18,01:01～02:00,0.102,0.0876,0.0948,
江戸川 (Edogawa),2013-03-18,00:01～01:00,0.102,0.0892,0.0951,
